Index of /20260426/WXO-DD/model_rdps/10km/18/066
Name Last modified Size Description
Parent Directory -
20260426T18Z_MSC_RDPS_AbsoluteVorticity_IsbL-0250_RLatLon0.09_PT066H.grib2 2026-04-26 21:39 631K
20260426T18Z_MSC_RDPS_AbsoluteVorticity_IsbL-0500_RLatLon0.09_PT066H.grib2 2026-04-26 21:39 703K
20260426T18Z_MSC_RDPS_AbsoluteVorticity_IsbL-0700_RLatLon0.09_PT066H.grib2 2026-04-26 21:39 616K
20260426T18Z_MSC_RDPS_AbsoluteVorticity_IsbL-0850_RLatLon0.09_PT066H.grib2 2026-04-26 21:39 775K
20260426T18Z_MSC_RDPS_AirTemp_AGL-120m_RLatLon0.09_PT066H.grib2 2026-04-26 21:39 377K
20260426T18Z_MSC_RDPS_AirTemp_AGL-2m_RLatLon0.09_PT066H.grib2 2026-04-26 21:39 621K
20260426T18Z_MSC_RDPS_AirTemp_AGL-40m_RLatLon0.09_PT066H.grib2 2026-04-26 21:39 394K
20260426T18Z_MSC_RDPS_AirTemp_AGL-80m_RLatLon0.09_PT066H.grib2 2026-04-26 21:39 385K
20260426T18Z_MSC_RDPS_AirTemp_IsbL-0001_RLatLon0.09_PT066H.grib2 2026-04-26 21:39 308K
20260426T18Z_MSC_RDPS_AirTemp_IsbL-0005_RLatLon0.09_PT066H.grib2 2026-04-26 21:39 293K
20260426T18Z_MSC_RDPS_AirTemp_IsbL-0010_RLatLon0.09_PT066H.grib2 2026-04-26 21:39 304K
20260426T18Z_MSC_RDPS_AirTemp_IsbL-0020_RLatLon0.09_PT066H.grib2 2026-04-26 21:39 319K
20260426T18Z_MSC_RDPS_AirTemp_IsbL-0030_RLatLon0.09_PT066H.grib2 2026-04-26 21:39 340K
20260426T18Z_MSC_RDPS_AirTemp_IsbL-0050_RLatLon0.09_PT066H.grib2 2026-04-26 21:39 320K
20260426T18Z_MSC_RDPS_AirTemp_IsbL-0100_RLatLon0.09_PT066H.grib2 2026-04-26 21:39 431K
20260426T18Z_MSC_RDPS_AirTemp_IsbL-0150_RLatLon0.09_PT066H.grib2 2026-04-26 21:39 429K
20260426T18Z_MSC_RDPS_AirTemp_IsbL-0175_RLatLon0.09_PT066H.grib2 2026-04-26 21:39 415K
20260426T18Z_MSC_RDPS_AirTemp_IsbL-0200_RLatLon0.09_PT066H.grib2 2026-04-26 21:39 419K
20260426T18Z_MSC_RDPS_AirTemp_IsbL-0225_RLatLon0.09_PT066H.grib2 2026-04-26 21:39 420K
20260426T18Z_MSC_RDPS_AirTemp_IsbL-0250_RLatLon0.09_PT066H.grib2 2026-04-26 21:39 429K
20260426T18Z_MSC_RDPS_AirTemp_IsbL-0275_RLatLon0.09_PT066H.grib2 2026-04-26 21:39 411K
20260426T18Z_MSC_RDPS_AirTemp_IsbL-0300_RLatLon0.09_PT066H.grib2 2026-04-26 21:39 417K
20260426T18Z_MSC_RDPS_AirTemp_IsbL-0350_RLatLon0.09_PT066H.grib2 2026-04-26 21:39 426K
20260426T18Z_MSC_RDPS_AirTemp_IsbL-0400_RLatLon0.09_PT066H.grib2 2026-04-26 21:39 425K
20260426T18Z_MSC_RDPS_AirTemp_IsbL-0450_RLatLon0.09_PT066H.grib2 2026-04-26 21:39 430K
20260426T18Z_MSC_RDPS_AirTemp_IsbL-0500_RLatLon0.09_PT066H.grib2 2026-04-26 21:39 404K
20260426T18Z_MSC_RDPS_AirTemp_IsbL-0550_RLatLon0.09_PT066H.grib2 2026-04-26 21:39 422K
20260426T18Z_MSC_RDPS_AirTemp_IsbL-0600_RLatLon0.09_PT066H.grib2 2026-04-26 21:39 439K
20260426T18Z_MSC_RDPS_AirTemp_IsbL-0650_RLatLon0.09_PT066H.grib2 2026-04-26 21:39 454K
20260426T18Z_MSC_RDPS_AirTemp_IsbL-0700_RLatLon0.09_PT066H.grib2 2026-04-26 21:39 479K
20260426T18Z_MSC_RDPS_AirTemp_IsbL-0750_RLatLon0.09_PT066H.grib2 2026-04-26 21:39 404K
20260426T18Z_MSC_RDPS_AirTemp_IsbL-0800_RLatLon0.09_PT066H.grib2 2026-04-26 21:39 451K
20260426T18Z_MSC_RDPS_AirTemp_IsbL-0850_RLatLon0.09_PT066H.grib2 2026-04-26 21:39 507K
20260426T18Z_MSC_RDPS_AirTemp_IsbL-0875_RLatLon0.09_PT066H.grib2 2026-04-26 21:39 526K
20260426T18Z_MSC_RDPS_AirTemp_IsbL-0900_RLatLon0.09_PT066H.grib2 2026-04-26 21:39 533K
20260426T18Z_MSC_RDPS_AirTemp_IsbL-0925_RLatLon0.09_PT066H.grib2 2026-04-26 21:39 527K
20260426T18Z_MSC_RDPS_AirTemp_IsbL-0950_RLatLon0.09_PT066H.grib2 2026-04-26 21:39 527K
20260426T18Z_MSC_RDPS_AirTemp_IsbL-0970_RLatLon0.09_PT066H.grib2 2026-04-26 21:39 520K
20260426T18Z_MSC_RDPS_AirTemp_IsbL-0985_RLatLon0.09_PT066H.grib2 2026-04-26 21:39 505K
20260426T18Z_MSC_RDPS_AirTemp_IsbL-1000_RLatLon0.09_PT066H.grib2 2026-04-26 21:39 488K
20260426T18Z_MSC_RDPS_AirTemp_IsbL-1015_RLatLon0.09_PT066H.grib2 2026-04-26 21:39 486K
20260426T18Z_MSC_RDPS_Albedo_Sfc_RLatLon0.09_PT066H.grib2 2026-04-26 21:39 155K
20260426T18Z_MSC_RDPS_CAPE_Sfc_RLatLon0.09_PT066H.grib2 2026-04-26 21:39 1.7M
20260426T18Z_MSC_RDPS_CIN_Sfc_RLatLon0.09_PT066H.grib2 2026-04-26 21:39 1.1M
20260426T18Z_MSC_RDPS_CloudWater_EAtm_RLatLon0.09_PT066H.grib2 2026-04-26 21:39 218K
20260426T18Z_MSC_RDPS_ConvectivePrecip-Accum_Sfc_RLatLon0.09_PT066H.grib2 2026-04-26 21:39 1.2M
20260426T18Z_MSC_RDPS_DewPointDepression_AGL-2m_RLatLon0.09_PT066H.grib2 2026-04-26 21:39 393K
20260426T18Z_MSC_RDPS_DewPointDepression_IsbL-0001_RLatLon0.09_PT066H.grib2 2026-04-26 21:39 193
20260426T18Z_MSC_RDPS_DewPointDepression_IsbL-0005_RLatLon0.09_PT066H.grib2 2026-04-26 21:39 193
20260426T18Z_MSC_RDPS_DewPointDepression_IsbL-0010_RLatLon0.09_PT066H.grib2 2026-04-26 21:39 193
20260426T18Z_MSC_RDPS_DewPointDepression_IsbL-0020_RLatLon0.09_PT066H.grib2 2026-04-26 21:39 193
20260426T18Z_MSC_RDPS_DewPointDepression_IsbL-0030_RLatLon0.09_PT066H.grib2 2026-04-26 21:39 193
20260426T18Z_MSC_RDPS_DewPointDepression_IsbL-0050_RLatLon0.09_PT066H.grib2 2026-04-26 21:39 87K
20260426T18Z_MSC_RDPS_DewPointDepression_IsbL-0100_RLatLon0.09_PT066H.grib2 2026-04-26 21:39 129K
20260426T18Z_MSC_RDPS_DewPointDepression_IsbL-0150_RLatLon0.09_PT066H.grib2 2026-04-26 21:39 146K
20260426T18Z_MSC_RDPS_DewPointDepression_IsbL-0175_RLatLon0.09_PT066H.grib2 2026-04-26 21:39 176K
20260426T18Z_MSC_RDPS_DewPointDepression_IsbL-0200_RLatLon0.09_PT066H.grib2 2026-04-26 21:39 216K
20260426T18Z_MSC_RDPS_DewPointDepression_IsbL-0225_RLatLon0.09_PT066H.grib2 2026-04-26 21:39 264K
20260426T18Z_MSC_RDPS_DewPointDepression_IsbL-0250_RLatLon0.09_PT066H.grib2 2026-04-26 21:39 303K
20260426T18Z_MSC_RDPS_DewPointDepression_IsbL-0275_RLatLon0.09_PT066H.grib2 2026-04-26 21:39 309K
20260426T18Z_MSC_RDPS_DewPointDepression_IsbL-0300_RLatLon0.09_PT066H.grib2 2026-04-26 21:39 323K
20260426T18Z_MSC_RDPS_DewPointDepression_IsbL-0350_RLatLon0.09_PT066H.grib2 2026-04-26 21:39 325K
20260426T18Z_MSC_RDPS_DewPointDepression_IsbL-0400_RLatLon0.09_PT066H.grib2 2026-04-26 21:39 335K
20260426T18Z_MSC_RDPS_DewPointDepression_IsbL-0450_RLatLon0.09_PT066H.grib2 2026-04-26 21:39 339K
20260426T18Z_MSC_RDPS_DewPointDepression_IsbL-0500_RLatLon0.09_PT066H.grib2 2026-04-26 21:39 346K
20260426T18Z_MSC_RDPS_DewPointDepression_IsbL-0550_RLatLon0.09_PT066H.grib2 2026-04-26 21:39 358K
20260426T18Z_MSC_RDPS_DewPointDepression_IsbL-0600_RLatLon0.09_PT066H.grib2 2026-04-26 21:39 365K
20260426T18Z_MSC_RDPS_DewPointDepression_IsbL-0650_RLatLon0.09_PT066H.grib2 2026-04-26 21:39 371K
20260426T18Z_MSC_RDPS_DewPointDepression_IsbL-0700_RLatLon0.09_PT066H.grib2 2026-04-26 21:39 383K
20260426T18Z_MSC_RDPS_DewPointDepression_IsbL-0750_RLatLon0.09_PT066H.grib2 2026-04-26 21:39 406K
20260426T18Z_MSC_RDPS_DewPointDepression_IsbL-0800_RLatLon0.09_PT066H.grib2 2026-04-26 21:39 438K
20260426T18Z_MSC_RDPS_DewPointDepression_IsbL-0850_RLatLon0.09_PT066H.grib2 2026-04-26 21:39 468K
20260426T18Z_MSC_RDPS_DewPointDepression_IsbL-0875_RLatLon0.09_PT066H.grib2 2026-04-26 21:39 470K
20260426T18Z_MSC_RDPS_DewPointDepression_IsbL-0900_RLatLon0.09_PT066H.grib2 2026-04-26 21:39 460K
20260426T18Z_MSC_RDPS_DewPointDepression_IsbL-0925_RLatLon0.09_PT066H.grib2 2026-04-26 21:39 449K
20260426T18Z_MSC_RDPS_DewPointDepression_IsbL-0950_RLatLon0.09_PT066H.grib2 2026-04-26 21:39 441K
20260426T18Z_MSC_RDPS_DewPointDepression_IsbL-0970_RLatLon0.09_PT066H.grib2 2026-04-26 21:39 432K
20260426T18Z_MSC_RDPS_DewPointDepression_IsbL-0985_RLatLon0.09_PT066H.grib2 2026-04-26 21:39 427K
20260426T18Z_MSC_RDPS_DewPointDepression_IsbL-1000_RLatLon0.09_PT066H.grib2 2026-04-26 21:39 424K
20260426T18Z_MSC_RDPS_DewPointDepression_IsbL-1015_RLatLon0.09_PT066H.grib2 2026-04-26 21:39 418K
20260426T18Z_MSC_RDPS_DewPoint_AGL-2m_RLatLon0.09_PT066H.grib2 2026-04-26 21:39 397K
20260426T18Z_MSC_RDPS_DownwardLongwaveRadiationFlux-Accum_Sfc_RLatLon0.09_PT066H.grib2 2026-04-26 21:39 418K
20260426T18Z_MSC_RDPS_DownwardShortwaveRadiationFlux-Accum_NTAtm_RLatLon0.09_PT066H.grib2 2026-04-26 21:39 108K
20260426T18Z_MSC_RDPS_DownwardShortwaveRadiationFlux-Accum_Sfc_RLatLon0.09_PT066H.grib2 2026-04-26 21:39 607K
20260426T18Z_MSC_RDPS_FreezingRain-Accum12h_Sfc_RLatLon0.09_PT066H.grib2 2026-04-26 21:39 96K
20260426T18Z_MSC_RDPS_FreezingRain-Accum1h_Sfc_RLatLon0.09_PT066H.grib2 2026-04-26 21:39 46K
20260426T18Z_MSC_RDPS_FreezingRain-Accum24h_Sfc_RLatLon0.09_PT066H.grib2 2026-04-26 21:39 125K
20260426T18Z_MSC_RDPS_FreezingRain-Accum3h_Sfc_RLatLon0.09_PT066H.grib2 2026-04-26 21:39 58K
20260426T18Z_MSC_RDPS_FreezingRain-Accum6h_Sfc_RLatLon0.09_PT066H.grib2 2026-04-26 21:39 86K
20260426T18Z_MSC_RDPS_FreezingRain-Accum_Sfc_RLatLon0.09_PT066H.grib2 2026-04-26 21:39 206K
20260426T18Z_MSC_RDPS_GeopotentialHeight_IsbL-0001_RLatLon0.09_PT066H.grib2 2026-04-26 21:39 312K
20260426T18Z_MSC_RDPS_GeopotentialHeight_IsbL-0005_RLatLon0.09_PT066H.grib2 2026-04-26 21:39 337K
20260426T18Z_MSC_RDPS_GeopotentialHeight_IsbL-0010_RLatLon0.09_PT066H.grib2 2026-04-26 21:39 305K
20260426T18Z_MSC_RDPS_GeopotentialHeight_IsbL-0020_RLatLon0.09_PT066H.grib2 2026-04-26 21:39 304K
20260426T18Z_MSC_RDPS_GeopotentialHeight_IsbL-0030_RLatLon0.09_PT066H.grib2 2026-04-26 21:39 305K
20260426T18Z_MSC_RDPS_GeopotentialHeight_IsbL-0050_RLatLon0.09_PT066H.grib2 2026-04-26 21:39 308K
20260426T18Z_MSC_RDPS_GeopotentialHeight_IsbL-0100_RLatLon0.09_PT066H.grib2 2026-04-26 21:39 286K
20260426T18Z_MSC_RDPS_GeopotentialHeight_IsbL-0150_RLatLon0.09_PT066H.grib2 2026-04-26 21:39 229K
20260426T18Z_MSC_RDPS_GeopotentialHeight_IsbL-0175_RLatLon0.09_PT066H.grib2 2026-04-26 21:39 263K
20260426T18Z_MSC_RDPS_GeopotentialHeight_IsbL-0200_RLatLon0.09_PT066H.grib2 2026-04-26 21:39 265K
20260426T18Z_MSC_RDPS_GeopotentialHeight_IsbL-0225_RLatLon0.09_PT066H.grib2 2026-04-26 21:39 266K
20260426T18Z_MSC_RDPS_GeopotentialHeight_IsbL-0250_RLatLon0.09_PT066H.grib2 2026-04-26 21:39 266K
20260426T18Z_MSC_RDPS_GeopotentialHeight_IsbL-0275_RLatLon0.09_PT066H.grib2 2026-04-26 21:39 265K
20260426T18Z_MSC_RDPS_GeopotentialHeight_IsbL-0300_RLatLon0.09_PT066H.grib2 2026-04-26 21:39 266K
20260426T18Z_MSC_RDPS_GeopotentialHeight_IsbL-0350_RLatLon0.09_PT066H.grib2 2026-04-26 21:39 231K
20260426T18Z_MSC_RDPS_GeopotentialHeight_IsbL-0400_RLatLon0.09_PT066H.grib2 2026-04-26 21:39 228K
20260426T18Z_MSC_RDPS_GeopotentialHeight_IsbL-0450_RLatLon0.09_PT066H.grib2 2026-04-26 21:39 296K
20260426T18Z_MSC_RDPS_GeopotentialHeight_IsbL-0500_RLatLon0.09_PT066H.grib2 2026-04-26 21:39 291K
20260426T18Z_MSC_RDPS_GeopotentialHeight_IsbL-0550_RLatLon0.09_PT066H.grib2 2026-04-26 21:39 287K
20260426T18Z_MSC_RDPS_GeopotentialHeight_IsbL-0600_RLatLon0.09_PT066H.grib2 2026-04-26 21:39 283K
20260426T18Z_MSC_RDPS_GeopotentialHeight_IsbL-0650_RLatLon0.09_PT066H.grib2 2026-04-26 21:39 253K
20260426T18Z_MSC_RDPS_GeopotentialHeight_IsbL-0700_RLatLon0.09_PT066H.grib2 2026-04-26 21:39 251K
20260426T18Z_MSC_RDPS_GeopotentialHeight_IsbL-0750_RLatLon0.09_PT066H.grib2 2026-04-26 21:39 334K
20260426T18Z_MSC_RDPS_GeopotentialHeight_IsbL-0800_RLatLon0.09_PT066H.grib2 2026-04-26 21:39 343K
20260426T18Z_MSC_RDPS_GeopotentialHeight_IsbL-0850_RLatLon0.09_PT066H.grib2 2026-04-26 21:39 355K
20260426T18Z_MSC_RDPS_GeopotentialHeight_IsbL-0875_RLatLon0.09_PT066H.grib2 2026-04-26 21:39 359K
20260426T18Z_MSC_RDPS_GeopotentialHeight_IsbL-0900_RLatLon0.09_PT066H.grib2 2026-04-26 21:39 362K
20260426T18Z_MSC_RDPS_GeopotentialHeight_IsbL-0925_RLatLon0.09_PT066H.grib2 2026-04-26 21:39 366K
20260426T18Z_MSC_RDPS_GeopotentialHeight_IsbL-0950_RLatLon0.09_PT066H.grib2 2026-04-26 21:39 370K
20260426T18Z_MSC_RDPS_GeopotentialHeight_IsbL-0970_RLatLon0.09_PT066H.grib2 2026-04-26 21:39 375K
20260426T18Z_MSC_RDPS_GeopotentialHeight_IsbL-0985_RLatLon0.09_PT066H.grib2 2026-04-26 21:39 383K
20260426T18Z_MSC_RDPS_GeopotentialHeight_IsbL-1000_RLatLon0.09_PT066H.grib2 2026-04-26 21:39 395K
20260426T18Z_MSC_RDPS_GeopotentialHeight_IsbL-1015_RLatLon0.09_PT066H.grib2 2026-04-26 21:39 409K
20260426T18Z_MSC_RDPS_Humidex_Sfc_RLatLon0.09_PT066H.grib2 2026-04-26 21:39 2.4M
20260426T18Z_MSC_RDPS_IcePellets-Accum12h_Sfc_RLatLon0.09_PT066H.grib2 2026-04-26 21:39 14K
20260426T18Z_MSC_RDPS_IcePellets-Accum1h_Sfc_RLatLon0.09_PT066H.grib2 2026-04-26 21:39 8.2K
20260426T18Z_MSC_RDPS_IcePellets-Accum24h_Sfc_RLatLon0.09_PT066H.grib2 2026-04-26 21:39 24K
20260426T18Z_MSC_RDPS_IcePellets-Accum3h_Sfc_RLatLon0.09_PT066H.grib2 2026-04-26 21:39 9.3K
20260426T18Z_MSC_RDPS_IcePellets-Accum6h_Sfc_RLatLon0.09_PT066H.grib2 2026-04-26 21:39 13K
20260426T18Z_MSC_RDPS_IcePellets-Accum_Sfc_RLatLon0.09_PT066H.grib2 2026-04-26 21:39 38K
20260426T18Z_MSC_RDPS_KIndex_Sfc_RLatLon0.09_PT066H.grib2 2026-04-26 21:39 2.5M
20260426T18Z_MSC_RDPS_LatentHeatNetFlux_Sfc_RLatLon0.09_PT066H.grib2 2026-04-26 21:39 419K
20260426T18Z_MSC_RDPS_LiftedIndex-MU-VT_IsbL-0500_RLatLon0.09_PT066H.grib2 2026-04-26 21:39 2.4M
20260426T18Z_MSC_RDPS_NetLongwaveRadiationFlux-Accum_Sfc_RLatLon0.09_PT066H.grib2 2026-04-26 21:39 596K
20260426T18Z_MSC_RDPS_NetShortwaveRadiationFlux-Accum_Sfc_RLatLon0.09_PT066H.grib2 2026-04-26 21:39 610K
20260426T18Z_MSC_RDPS_PlanetaryBoundaryLayerHeight_Sfc_RLatLon0.09_PT066H.grib2 2026-04-26 21:39 1.1M
20260426T18Z_MSC_RDPS_Precip-Accum12h_Sfc_RLatLon0.09_PT066H.grib2 2026-04-26 21:39 1.6M
20260426T18Z_MSC_RDPS_Precip-Accum1h_Sfc_RLatLon0.09_PT066H.grib2 2026-04-26 21:39 1.2M
20260426T18Z_MSC_RDPS_Precip-Accum24h_Sfc_RLatLon0.09_PT066H.grib2 2026-04-26 21:39 1.8M
20260426T18Z_MSC_RDPS_Precip-Accum3h_Sfc_RLatLon0.09_PT066H.grib2 2026-04-26 21:39 1.3M
20260426T18Z_MSC_RDPS_Precip-Accum6h_Sfc_RLatLon0.09_PT066H.grib2 2026-04-26 21:39 1.5M
20260426T18Z_MSC_RDPS_Precip-Accum_Sfc_RLatLon0.09_PT066H.grib2 2026-04-26 21:39 2.2M
20260426T18Z_MSC_RDPS_PrecipRate_Sfc_RLatLon0.09_PT066H.grib2 2026-04-26 21:39 178K
20260426T18Z_MSC_RDPS_PrecipType-Instant_Sfc_RLatLon0.09_PT066H.grib2 2026-04-26 21:39 566K
20260426T18Z_MSC_RDPS_Pressure-Trend3h_Sfc_RLatLon0.09_PT066H.grib2 2026-04-26 21:39 1.2M
20260426T18Z_MSC_RDPS_Pressure_MSL_RLatLon0.09_PT066H.grib2 2026-04-26 21:39 294K
20260426T18Z_MSC_RDPS_Pressure_PVU-1.5_RLatLon0.09_PT066H.grib2 2026-04-26 21:39 2.3M
20260426T18Z_MSC_RDPS_Pressure_PVU-1_RLatLon0.09_PT066H.grib2 2026-04-26 21:39 2.4M
20260426T18Z_MSC_RDPS_Pressure_PVU-2_RLatLon0.09_PT066H.grib2 2026-04-26 21:39 2.3M
20260426T18Z_MSC_RDPS_Pressure_Sfc_RLatLon0.09_PT066H.grib2 2026-04-26 21:39 501K
20260426T18Z_MSC_RDPS_RadiativeTemp_Sfc_RLatLon0.09_PT066H.grib2 2026-04-26 21:39 302K
20260426T18Z_MSC_RDPS_Rain-Accum12h_Sfc_RLatLon0.09_PT066H.grib2 2026-04-26 21:39 1.0M
20260426T18Z_MSC_RDPS_Rain-Accum1h_Sfc_RLatLon0.09_PT066H.grib2 2026-04-26 21:39 507K
20260426T18Z_MSC_RDPS_Rain-Accum24h_Sfc_RLatLon0.09_PT066H.grib2 2026-04-26 21:39 1.3M
20260426T18Z_MSC_RDPS_Rain-Accum3h_Sfc_RLatLon0.09_PT066H.grib2 2026-04-26 21:39 579K
20260426T18Z_MSC_RDPS_Rain-Accum6h_Sfc_RLatLon0.09_PT066H.grib2 2026-04-26 21:39 926K
20260426T18Z_MSC_RDPS_Rain-Accum_Sfc_RLatLon0.09_PT066H.grib2 2026-04-26 21:39 1.7M
20260426T18Z_MSC_RDPS_RelativeHumidity_AGL-2m_RLatLon0.09_PT066H.grib2 2026-04-26 21:39 1.0M
20260426T18Z_MSC_RDPS_RelativeHumidity_IsbL-0010_RLatLon0.09_PT066H.grib2 2026-04-26 21:39 621K
20260426T18Z_MSC_RDPS_RelativeHumidity_IsbL-0020_RLatLon0.09_PT066H.grib2 2026-04-26 21:39 645K
20260426T18Z_MSC_RDPS_RelativeHumidity_IsbL-0030_RLatLon0.09_PT066H.grib2 2026-04-26 21:39 540K
20260426T18Z_MSC_RDPS_RelativeHumidity_IsbL-0050_RLatLon0.09_PT066H.grib2 2026-04-26 21:39 330K
20260426T18Z_MSC_RDPS_RelativeHumidity_IsbL-0100_RLatLon0.09_PT066H.grib2 2026-04-26 21:39 282K
20260426T18Z_MSC_RDPS_RelativeHumidity_IsbL-0150_RLatLon0.09_PT066H.grib2 2026-04-26 21:39 414K
20260426T18Z_MSC_RDPS_RelativeHumidity_IsbL-0175_RLatLon0.09_PT066H.grib2 2026-04-26 21:39 484K
20260426T18Z_MSC_RDPS_RelativeHumidity_IsbL-0200_RLatLon0.09_PT066H.grib2 2026-04-26 21:39 560K
20260426T18Z_MSC_RDPS_RelativeHumidity_IsbL-0225_RLatLon0.09_PT066H.grib2 2026-04-26 21:39 624K
20260426T18Z_MSC_RDPS_RelativeHumidity_IsbL-0250_RLatLon0.09_PT066H.grib2 2026-04-26 21:39 694K
20260426T18Z_MSC_RDPS_RelativeHumidity_IsbL-0275_RLatLon0.09_PT066H.grib2 2026-04-26 21:39 723K
20260426T18Z_MSC_RDPS_RelativeHumidity_IsbL-0300_RLatLon0.09_PT066H.grib2 2026-04-26 21:39 760K
20260426T18Z_MSC_RDPS_RelativeHumidity_IsbL-0350_RLatLon0.09_PT066H.grib2 2026-04-26 21:39 775K
20260426T18Z_MSC_RDPS_RelativeHumidity_IsbL-0400_RLatLon0.09_PT066H.grib2 2026-04-26 21:39 787K
20260426T18Z_MSC_RDPS_RelativeHumidity_IsbL-0450_RLatLon0.09_PT066H.grib2 2026-04-26 21:39 786K
20260426T18Z_MSC_RDPS_RelativeHumidity_IsbL-0500_RLatLon0.09_PT066H.grib2 2026-04-26 21:39 791K
20260426T18Z_MSC_RDPS_RelativeHumidity_IsbL-0550_RLatLon0.09_PT066H.grib2 2026-04-26 21:39 808K
20260426T18Z_MSC_RDPS_RelativeHumidity_IsbL-0600_RLatLon0.09_PT066H.grib2 2026-04-26 21:39 825K
20260426T18Z_MSC_RDPS_RelativeHumidity_IsbL-0650_RLatLon0.09_PT066H.grib2 2026-04-26 21:39 835K
20260426T18Z_MSC_RDPS_RelativeHumidity_IsbL-0700_RLatLon0.09_PT066H.grib2 2026-04-26 21:39 860K
20260426T18Z_MSC_RDPS_RelativeHumidity_IsbL-0750_RLatLon0.09_PT066H.grib2 2026-04-26 21:39 907K
20260426T18Z_MSC_RDPS_RelativeHumidity_IsbL-0800_RLatLon0.09_PT066H.grib2 2026-04-26 21:39 972K
20260426T18Z_MSC_RDPS_RelativeHumidity_IsbL-0850_RLatLon0.09_PT066H.grib2 2026-04-26 21:39 1.0M
20260426T18Z_MSC_RDPS_RelativeHumidity_IsbL-0875_RLatLon0.09_PT066H.grib2 2026-04-26 21:39 1.1M
20260426T18Z_MSC_RDPS_RelativeHumidity_IsbL-0900_RLatLon0.09_PT066H.grib2 2026-04-26 21:39 1.1M
20260426T18Z_MSC_RDPS_RelativeHumidity_IsbL-0925_RLatLon0.09_PT066H.grib2 2026-04-26 21:39 1.1M
20260426T18Z_MSC_RDPS_RelativeHumidity_IsbL-0950_RLatLon0.09_PT066H.grib2 2026-04-26 21:39 1.1M
20260426T18Z_MSC_RDPS_RelativeHumidity_IsbL-0970_RLatLon0.09_PT066H.grib2 2026-04-26 21:39 1.0M
20260426T18Z_MSC_RDPS_RelativeHumidity_IsbL-0985_RLatLon0.09_PT066H.grib2 2026-04-26 21:39 1.0M
20260426T18Z_MSC_RDPS_RelativeHumidity_IsbL-1000_RLatLon0.09_PT066H.grib2 2026-04-26 21:39 1.0M
20260426T18Z_MSC_RDPS_RelativeHumidity_IsbL-1015_RLatLon0.09_PT066H.grib2 2026-04-26 21:39 1.0M
20260426T18Z_MSC_RDPS_Runoff-Accum_Sfc_RLatLon0.09_PT066H.grib2 2026-04-26 21:39 58K
20260426T18Z_MSC_RDPS_SWEATIndex_Sfc_RLatLon0.09_PT066H.grib2 2026-04-26 21:39 2.4M
20260426T18Z_MSC_RDPS_SeeingIndex_EAtm_RLatLon0.09_PT066H.grib2 2026-04-26 21:39 1.0M
20260426T18Z_MSC_RDPS_SensibleHeatNetFlux_Sfc_RLatLon0.09_PT066H.grib2 2026-04-26 21:39 307K
20260426T18Z_MSC_RDPS_ShowalterIndex_IsbL-0500_RLatLon0.09_PT066H.grib2 2026-04-26 21:39 2.6M
20260426T18Z_MSC_RDPS_SkyTransparencyIndex_EAtm_RLatLon0.09_PT066H.grib2 2026-04-26 21:39 701K
20260426T18Z_MSC_RDPS_Snow-Accum12h_Sfc_RLatLon0.09_PT066H.grib2 2026-04-26 21:39 633K
20260426T18Z_MSC_RDPS_Snow-Accum1h_Sfc_RLatLon0.09_PT066H.grib2 2026-04-26 21:39 548K
20260426T18Z_MSC_RDPS_Snow-Accum24h_Sfc_RLatLon0.09_PT066H.grib2 2026-04-26 21:39 663K
20260426T18Z_MSC_RDPS_Snow-Accum3h_Sfc_RLatLon0.09_PT066H.grib2 2026-04-26 21:39 545K
20260426T18Z_MSC_RDPS_Snow-Accum6h_Sfc_RLatLon0.09_PT066H.grib2 2026-04-26 21:39 616K
20260426T18Z_MSC_RDPS_Snow-Accum_Sfc_RLatLon0.09_PT066H.grib2 2026-04-26 21:39 846K
20260426T18Z_MSC_RDPS_SnowDensity_Sfc_RLatLon0.09_PT066H.grib2 2026-04-26 21:39 188K
20260426T18Z_MSC_RDPS_SnowDepth_Sfc_RLatLon0.09_PT066H.grib2 2026-04-26 21:39 705K
20260426T18Z_MSC_RDPS_SoilTemp_DBS-0to10cm_RLatLon0.09_PT066H.grib2 2026-04-26 21:39 238K
20260426T18Z_MSC_RDPS_SoilTemp_Sfc_RLatLon0.09_PT066H.grib2 2026-04-26 21:39 285K
20260426T18Z_MSC_RDPS_SoilVolumetricIceContent_Sfc_RLatLon0.09_PT066H.grib2 2026-04-26 21:39 168K
20260426T18Z_MSC_RDPS_SoilVolumetricWaterContent_DBS-0to10cm_RLatLon0.09_PT066H.grib2 2026-04-26 21:39 266K
20260426T18Z_MSC_RDPS_SoilVolumetricWaterContent_DBS-0to1cm_RLatLon0.09_PT066H.grib2 2026-04-26 21:39 341K
20260426T18Z_MSC_RDPS_SpecificHumidity_AGL-120m_RLatLon0.09_PT066H.grib2 2026-04-26 21:39 485K
20260426T18Z_MSC_RDPS_SpecificHumidity_AGL-2m_RLatLon0.09_PT066H.grib2 2026-04-26 21:39 651K
20260426T18Z_MSC_RDPS_SpecificHumidity_AGL-40m_RLatLon0.09_PT066H.grib2 2026-04-26 21:39 491K
20260426T18Z_MSC_RDPS_SpecificHumidity_AGL-80m_RLatLon0.09_PT066H.grib2 2026-04-26 21:39 487K
20260426T18Z_MSC_RDPS_SpecificHumidity_IsbL-0001_RLatLon0.09_PT066H.grib2 2026-04-26 21:39 337K
20260426T18Z_MSC_RDPS_SpecificHumidity_IsbL-0005_RLatLon0.09_PT066H.grib2 2026-04-26 21:39 351K
20260426T18Z_MSC_RDPS_SpecificHumidity_IsbL-0010_RLatLon0.09_PT066H.grib2 2026-04-26 21:39 393K
20260426T18Z_MSC_RDPS_SpecificHumidity_IsbL-0020_RLatLon0.09_PT066H.grib2 2026-04-26 21:39 379K
20260426T18Z_MSC_RDPS_SpecificHumidity_IsbL-0030_RLatLon0.09_PT066H.grib2 2026-04-26 21:39 439K
20260426T18Z_MSC_RDPS_SpecificHumidity_IsbL-0050_RLatLon0.09_PT066H.grib2 2026-04-26 21:39 450K
20260426T18Z_MSC_RDPS_SpecificHumidity_IsbL-0100_RLatLon0.09_PT066H.grib2 2026-04-26 21:39 422K
20260426T18Z_MSC_RDPS_SpecificHumidity_IsbL-0150_RLatLon0.09_PT066H.grib2 2026-04-26 21:39 478K
20260426T18Z_MSC_RDPS_SpecificHumidity_IsbL-0175_RLatLon0.09_PT066H.grib2 2026-04-26 21:39 438K
20260426T18Z_MSC_RDPS_SpecificHumidity_IsbL-0200_RLatLon0.09_PT066H.grib2 2026-04-26 21:39 456K
20260426T18Z_MSC_RDPS_SpecificHumidity_IsbL-0225_RLatLon0.09_PT066H.grib2 2026-04-26 21:39 457K
20260426T18Z_MSC_RDPS_SpecificHumidity_IsbL-0250_RLatLon0.09_PT066H.grib2 2026-04-26 21:39 560K
20260426T18Z_MSC_RDPS_SpecificHumidity_IsbL-0275_RLatLon0.09_PT066H.grib2 2026-04-26 21:39 474K
20260426T18Z_MSC_RDPS_SpecificHumidity_IsbL-0300_RLatLon0.09_PT066H.grib2 2026-04-26 21:39 567K
20260426T18Z_MSC_RDPS_SpecificHumidity_IsbL-0350_RLatLon0.09_PT066H.grib2 2026-04-26 21:39 529K
20260426T18Z_MSC_RDPS_SpecificHumidity_IsbL-0400_RLatLon0.09_PT066H.grib2 2026-04-26 21:39 511K
20260426T18Z_MSC_RDPS_SpecificHumidity_IsbL-0450_RLatLon0.09_PT066H.grib2 2026-04-26 21:39 559K
20260426T18Z_MSC_RDPS_SpecificHumidity_IsbL-0500_RLatLon0.09_PT066H.grib2 2026-04-26 21:39 495K
20260426T18Z_MSC_RDPS_SpecificHumidity_IsbL-0550_RLatLon0.09_PT066H.grib2 2026-04-26 21:39 569K
20260426T18Z_MSC_RDPS_SpecificHumidity_IsbL-0600_RLatLon0.09_PT066H.grib2 2026-04-26 21:39 621K
20260426T18Z_MSC_RDPS_SpecificHumidity_IsbL-0650_RLatLon0.09_PT066H.grib2 2026-04-26 21:39 539K
20260426T18Z_MSC_RDPS_SpecificHumidity_IsbL-0700_RLatLon0.09_PT066H.grib2 2026-04-26 21:39 582K
20260426T18Z_MSC_RDPS_SpecificHumidity_IsbL-0750_RLatLon0.09_PT066H.grib2 2026-04-26 21:39 636K
20260426T18Z_MSC_RDPS_SpecificHumidity_IsbL-0800_RLatLon0.09_PT066H.grib2 2026-04-26 21:39 715K
20260426T18Z_MSC_RDPS_SpecificHumidity_IsbL-0850_RLatLon0.09_PT066H.grib2 2026-04-26 21:39 794K
20260426T18Z_MSC_RDPS_SpecificHumidity_IsbL-0875_RLatLon0.09_PT066H.grib2 2026-04-26 21:39 821K
20260426T18Z_MSC_RDPS_SpecificHumidity_IsbL-0900_RLatLon0.09_PT066H.grib2 2026-04-26 21:39 832K
20260426T18Z_MSC_RDPS_SpecificHumidity_IsbL-0925_RLatLon0.09_PT066H.grib2 2026-04-26 21:39 833K
20260426T18Z_MSC_RDPS_SpecificHumidity_IsbL-0950_RLatLon0.09_PT066H.grib2 2026-04-26 21:39 832K
20260426T18Z_MSC_RDPS_SpecificHumidity_IsbL-0970_RLatLon0.09_PT066H.grib2 2026-04-26 21:39 822K
20260426T18Z_MSC_RDPS_SpecificHumidity_IsbL-0985_RLatLon0.09_PT066H.grib2 2026-04-26 21:39 815K
20260426T18Z_MSC_RDPS_SpecificHumidity_IsbL-1000_RLatLon0.09_PT066H.grib2 2026-04-26 21:39 669K
20260426T18Z_MSC_RDPS_SpecificHumidity_IsbL-1015_RLatLon0.09_PT066H.grib2 2026-04-26 21:39 662K
20260426T18Z_MSC_RDPS_SpecificHumidity_Sfc_RLatLon0.09_PT066H.grib2 2026-04-26 21:39 291K
20260426T18Z_MSC_RDPS_StormRelativeHelicity_EtaL-10000_RLatLon0.09_PT066H.grib2 2026-04-26 21:39 1.1M
20260426T18Z_MSC_RDPS_StormSeverityIndex_EtaL-10000_RLatLon0.09_PT066H.grib2 2026-04-26 21:39 1.1M
20260426T18Z_MSC_RDPS_Thickness_IsbL-0850to0700_RLatLon0.09_PT066H.grib2 2026-04-26 21:39 176K
20260426T18Z_MSC_RDPS_Thickness_IsbL-1000to0500_RLatLon0.09_PT066H.grib2 2026-04-26 21:39 199K
20260426T18Z_MSC_RDPS_Thickness_IsbL-1000to0850_RLatLon0.09_PT066H.grib2 2026-04-26 21:39 262K
20260426T18Z_MSC_RDPS_TotalCloudCover_Sfc_RLatLon0.09_PT066H.grib2 2026-04-26 21:39 668K
20260426T18Z_MSC_RDPS_TotalTotalsIndex_Sfc_RLatLon0.09_PT066H.grib2 2026-04-26 21:39 2.4M
20260426T18Z_MSC_RDPS_UVIndex-ClearSky_Sfc_RLatLon0.09_PT066H.grib2 2026-04-26 21:39 141K
20260426T18Z_MSC_RDPS_UVIndex_Sfc_RLatLon0.09_PT066H.grib2 2026-04-26 21:39 331K
20260426T18Z_MSC_RDPS_UpwardLongwaveRadiationFlux_NTAtm_RLatLon0.09_PT066H.grib2 2026-04-26 21:39 487K
20260426T18Z_MSC_RDPS_UpwardShortwaveRadiationFlux_NTAtm_RLatLon0.09_PT066H.grib2 2026-04-26 21:39 298K
20260426T18Z_MSC_RDPS_VerticalVelocity_IsbL-0250_RLatLon0.09_PT066H.grib2 2026-04-26 21:39 454K
20260426T18Z_MSC_RDPS_VerticalVelocity_IsbL-0500_RLatLon0.09_PT066H.grib2 2026-04-26 21:39 543K
20260426T18Z_MSC_RDPS_VerticalVelocity_IsbL-0700_RLatLon0.09_PT066H.grib2 2026-04-26 21:39 585K
20260426T18Z_MSC_RDPS_VerticalVelocity_IsbL-0850_RLatLon0.09_PT066H.grib2 2026-04-26 21:39 683K
20260426T18Z_MSC_RDPS_VerticalWindShear_EtaL-6500_RLatLon0.09_PT066H.grib2 2026-04-26 21:39 1.2M
20260426T18Z_MSC_RDPS_WindChill_Sfc_RLatLon0.09_PT066H.grib2 2026-04-26 21:39 1.2M
20260426T18Z_MSC_RDPS_WindDir_AGL-10m_RLatLon0.09_PT066H.grib2 2026-04-26 21:39 1.0M
20260426T18Z_MSC_RDPS_WindDir_AGL-120m_RLatLon0.09_PT066H.grib2 2026-04-26 21:39 613K
20260426T18Z_MSC_RDPS_WindDir_AGL-40m_RLatLon0.09_PT066H.grib2 2026-04-26 21:39 644K
20260426T18Z_MSC_RDPS_WindDir_AGL-80m_RLatLon0.09_PT066H.grib2 2026-04-26 21:39 625K
20260426T18Z_MSC_RDPS_WindDir_IsbL-0001_RLatLon0.09_PT066H.grib2 2026-04-26 21:39 306K
20260426T18Z_MSC_RDPS_WindDir_IsbL-0005_RLatLon0.09_PT066H.grib2 2026-04-26 21:39 367K
20260426T18Z_MSC_RDPS_WindDir_IsbL-0010_RLatLon0.09_PT066H.grib2 2026-04-26 21:39 376K
20260426T18Z_MSC_RDPS_WindDir_IsbL-0020_RLatLon0.09_PT066H.grib2 2026-04-26 21:39 396K
20260426T18Z_MSC_RDPS_WindDir_IsbL-0030_RLatLon0.09_PT066H.grib2 2026-04-26 21:39 419K
20260426T18Z_MSC_RDPS_WindDir_IsbL-0050_RLatLon0.09_PT066H.grib2 2026-04-26 21:39 433K
20260426T18Z_MSC_RDPS_WindDir_IsbL-0100_RLatLon0.09_PT066H.grib2 2026-04-26 21:39 421K
20260426T18Z_MSC_RDPS_WindDir_IsbL-0150_RLatLon0.09_PT066H.grib2 2026-04-26 21:39 410K
20260426T18Z_MSC_RDPS_WindDir_IsbL-0175_RLatLon0.09_PT066H.grib2 2026-04-26 21:39 433K
20260426T18Z_MSC_RDPS_WindDir_IsbL-0200_RLatLon0.09_PT066H.grib2 2026-04-26 21:39 445K
20260426T18Z_MSC_RDPS_WindDir_IsbL-0225_RLatLon0.09_PT066H.grib2 2026-04-26 21:39 450K
20260426T18Z_MSC_RDPS_WindDir_IsbL-0250_RLatLon0.09_PT066H.grib2 2026-04-26 21:39 453K
20260426T18Z_MSC_RDPS_WindDir_IsbL-0275_RLatLon0.09_PT066H.grib2 2026-04-26 21:39 477K
20260426T18Z_MSC_RDPS_WindDir_IsbL-0300_RLatLon0.09_PT066H.grib2 2026-04-26 21:39 468K
20260426T18Z_MSC_RDPS_WindDir_IsbL-0350_RLatLon0.09_PT066H.grib2 2026-04-26 21:39 486K
20260426T18Z_MSC_RDPS_WindDir_IsbL-0400_RLatLon0.09_PT066H.grib2 2026-04-26 21:39 507K
20260426T18Z_MSC_RDPS_WindDir_IsbL-0450_RLatLon0.09_PT066H.grib2 2026-04-26 21:39 521K
20260426T18Z_MSC_RDPS_WindDir_IsbL-0500_RLatLon0.09_PT066H.grib2 2026-04-26 21:39 532K
20260426T18Z_MSC_RDPS_WindDir_IsbL-0550_RLatLon0.09_PT066H.grib2 2026-04-26 21:39 549K
20260426T18Z_MSC_RDPS_WindDir_IsbL-0600_RLatLon0.09_PT066H.grib2 2026-04-26 21:39 578K
20260426T18Z_MSC_RDPS_WindDir_IsbL-0650_RLatLon0.09_PT066H.grib2 2026-04-26 21:39 618K
20260426T18Z_MSC_RDPS_WindDir_IsbL-0700_RLatLon0.09_PT066H.grib2 2026-04-26 21:39 661K
20260426T18Z_MSC_RDPS_WindDir_IsbL-0750_RLatLon0.09_PT066H.grib2 2026-04-26 21:39 710K
20260426T18Z_MSC_RDPS_WindDir_IsbL-0800_RLatLon0.09_PT066H.grib2 2026-04-26 21:39 781K
20260426T18Z_MSC_RDPS_WindDir_IsbL-0850_RLatLon0.09_PT066H.grib2 2026-04-26 21:39 858K
20260426T18Z_MSC_RDPS_WindDir_IsbL-0875_RLatLon0.09_PT066H.grib2 2026-04-26 21:39 890K
20260426T18Z_MSC_RDPS_WindDir_IsbL-0900_RLatLon0.09_PT066H.grib2 2026-04-26 21:39 906K
20260426T18Z_MSC_RDPS_WindDir_IsbL-0925_RLatLon0.09_PT066H.grib2 2026-04-26 21:39 917K
20260426T18Z_MSC_RDPS_WindDir_IsbL-0950_RLatLon0.09_PT066H.grib2 2026-04-26 21:39 919K
20260426T18Z_MSC_RDPS_WindDir_IsbL-0970_RLatLon0.09_PT066H.grib2 2026-04-26 21:39 928K
20260426T18Z_MSC_RDPS_WindDir_IsbL-0985_RLatLon0.09_PT066H.grib2 2026-04-26 21:39 937K
20260426T18Z_MSC_RDPS_WindDir_IsbL-1000_RLatLon0.09_PT066H.grib2 2026-04-26 21:39 952K
20260426T18Z_MSC_RDPS_WindDir_IsbL-1015_RLatLon0.09_PT066H.grib2 2026-04-26 21:39 970K
20260426T18Z_MSC_RDPS_WindGust-Max_AGL-10m_RLatLon0.09_PT066H.grib2 2026-04-26 21:39 1.0M
20260426T18Z_MSC_RDPS_WindGust-Min_AGL-10m_RLatLon0.09_PT066H.grib2 2026-04-26 21:39 973K
20260426T18Z_MSC_RDPS_WindGust_AGL-10m_RLatLon0.09_PT066H.grib2 2026-04-26 21:39 1.0M
20260426T18Z_MSC_RDPS_WindSpeed_AGL-10m_RLatLon0.09_PT066H.grib2 2026-04-26 21:39 841K
20260426T18Z_MSC_RDPS_WindSpeed_AGL-120m_RLatLon0.09_PT066H.grib2 2026-04-26 21:39 553K
20260426T18Z_MSC_RDPS_WindSpeed_AGL-40m_RLatLon0.09_PT066H.grib2 2026-04-26 21:39 544K
20260426T18Z_MSC_RDPS_WindSpeed_AGL-80m_RLatLon0.09_PT066H.grib2 2026-04-26 21:39 553K
20260426T18Z_MSC_RDPS_WindSpeed_IsbL-0001_RLatLon0.09_PT066H.grib2 2026-04-26 21:39 255K
20260426T18Z_MSC_RDPS_WindSpeed_IsbL-0005_RLatLon0.09_PT066H.grib2 2026-04-26 21:39 296K
20260426T18Z_MSC_RDPS_WindSpeed_IsbL-0010_RLatLon0.09_PT066H.grib2 2026-04-26 21:39 309K
20260426T18Z_MSC_RDPS_WindSpeed_IsbL-0020_RLatLon0.09_PT066H.grib2 2026-04-26 21:39 325K
20260426T18Z_MSC_RDPS_WindSpeed_IsbL-0030_RLatLon0.09_PT066H.grib2 2026-04-26 21:39 322K
20260426T18Z_MSC_RDPS_WindSpeed_IsbL-0050_RLatLon0.09_PT066H.grib2 2026-04-26 21:39 462K
20260426T18Z_MSC_RDPS_WindSpeed_IsbL-0100_RLatLon0.09_PT066H.grib2 2026-04-26 21:39 487K
20260426T18Z_MSC_RDPS_WindSpeed_IsbL-0150_RLatLon0.09_PT066H.grib2 2026-04-26 21:39 385K
20260426T18Z_MSC_RDPS_WindSpeed_IsbL-0175_RLatLon0.09_PT066H.grib2 2026-04-26 21:39 433K
20260426T18Z_MSC_RDPS_WindSpeed_IsbL-0200_RLatLon0.09_PT066H.grib2 2026-04-26 21:39 452K
20260426T18Z_MSC_RDPS_WindSpeed_IsbL-0225_RLatLon0.09_PT066H.grib2 2026-04-26 21:39 456K
20260426T18Z_MSC_RDPS_WindSpeed_IsbL-0250_RLatLon0.09_PT066H.grib2 2026-04-26 21:39 460K
20260426T18Z_MSC_RDPS_WindSpeed_IsbL-0275_RLatLon0.09_PT066H.grib2 2026-04-26 21:39 478K
20260426T18Z_MSC_RDPS_WindSpeed_IsbL-0300_RLatLon0.09_PT066H.grib2 2026-04-26 21:39 474K
20260426T18Z_MSC_RDPS_WindSpeed_IsbL-0350_RLatLon0.09_PT066H.grib2 2026-04-26 21:39 484K
20260426T18Z_MSC_RDPS_WindSpeed_IsbL-0400_RLatLon0.09_PT066H.grib2 2026-04-26 21:39 465K
20260426T18Z_MSC_RDPS_WindSpeed_IsbL-0450_RLatLon0.09_PT066H.grib2 2026-04-26 21:39 581K
20260426T18Z_MSC_RDPS_WindSpeed_IsbL-0500_RLatLon0.09_PT066H.grib2 2026-04-26 21:39 581K
20260426T18Z_MSC_RDPS_WindSpeed_IsbL-0550_RLatLon0.09_PT066H.grib2 2026-04-26 21:39 580K
20260426T18Z_MSC_RDPS_WindSpeed_IsbL-0600_RLatLon0.09_PT066H.grib2 2026-04-26 21:39 587K
20260426T18Z_MSC_RDPS_WindSpeed_IsbL-0650_RLatLon0.09_PT066H.grib2 2026-04-26 21:39 605K
20260426T18Z_MSC_RDPS_WindSpeed_IsbL-0700_RLatLon0.09_PT066H.grib2 2026-04-26 21:39 628K
20260426T18Z_MSC_RDPS_WindSpeed_IsbL-0750_RLatLon0.09_PT066H.grib2 2026-04-26 21:39 700K
20260426T18Z_MSC_RDPS_WindSpeed_IsbL-0800_RLatLon0.09_PT066H.grib2 2026-04-26 21:39 748K
20260426T18Z_MSC_RDPS_WindSpeed_IsbL-0850_RLatLon0.09_PT066H.grib2 2026-04-26 21:39 811K
20260426T18Z_MSC_RDPS_WindSpeed_IsbL-0875_RLatLon0.09_PT066H.grib2 2026-04-26 21:39 835K
20260426T18Z_MSC_RDPS_WindSpeed_IsbL-0900_RLatLon0.09_PT066H.grib2 2026-04-26 21:39 850K
20260426T18Z_MSC_RDPS_WindSpeed_IsbL-0925_RLatLon0.09_PT066H.grib2 2026-04-26 21:39 860K
20260426T18Z_MSC_RDPS_WindSpeed_IsbL-0950_RLatLon0.09_PT066H.grib2 2026-04-26 21:39 861K
20260426T18Z_MSC_RDPS_WindSpeed_IsbL-0970_RLatLon0.09_PT066H.grib2 2026-04-26 21:39 860K
20260426T18Z_MSC_RDPS_WindSpeed_IsbL-0985_RLatLon0.09_PT066H.grib2 2026-04-26 21:39 855K
20260426T18Z_MSC_RDPS_WindSpeed_IsbL-1000_RLatLon0.09_PT066H.grib2 2026-04-26 21:39 850K
20260426T18Z_MSC_RDPS_WindSpeed_IsbL-1015_RLatLon0.09_PT066H.grib2 2026-04-26 21:39 841K
20260426T18Z_MSC_RDPS_WindU_AGL-10m_RLatLon0.09_PT066H.grib2 2026-04-26 21:39 432K
20260426T18Z_MSC_RDPS_WindU_AGL-120m_RLatLon0.09_PT066H.grib2 2026-04-26 21:39 421K
20260426T18Z_MSC_RDPS_WindU_AGL-40m_RLatLon0.09_PT066H.grib2 2026-04-26 21:39 423K
20260426T18Z_MSC_RDPS_WindU_AGL-80m_RLatLon0.09_PT066H.grib2 2026-04-26 21:39 422K
20260426T18Z_MSC_RDPS_WindU_IsbL-0001_RLatLon0.09_PT066H.grib2 2026-04-26 21:39 295K
20260426T18Z_MSC_RDPS_WindU_IsbL-0005_RLatLon0.09_PT066H.grib2 2026-04-26 21:39 289K
20260426T18Z_MSC_RDPS_WindU_IsbL-0010_RLatLon0.09_PT066H.grib2 2026-04-26 21:39 300K
20260426T18Z_MSC_RDPS_WindU_IsbL-0020_RLatLon0.09_PT066H.grib2 2026-04-26 21:39 355K
20260426T18Z_MSC_RDPS_WindU_IsbL-0030_RLatLon0.09_PT066H.grib2 2026-04-26 21:39 315K
20260426T18Z_MSC_RDPS_WindU_IsbL-0050_RLatLon0.09_PT066H.grib2 2026-04-26 21:39 351K
20260426T18Z_MSC_RDPS_WindU_IsbL-0100_RLatLon0.09_PT066H.grib2 2026-04-26 21:39 441K
20260426T18Z_MSC_RDPS_WindU_IsbL-0150_RLatLon0.09_PT066H.grib2 2026-04-26 21:39 402K
20260426T18Z_MSC_RDPS_WindU_IsbL-0175_RLatLon0.09_PT066H.grib2 2026-04-26 21:39 425K
20260426T18Z_MSC_RDPS_WindU_IsbL-0200_RLatLon0.09_PT066H.grib2 2026-04-26 21:39 442K
20260426T18Z_MSC_RDPS_WindU_IsbL-0225_RLatLon0.09_PT066H.grib2 2026-04-26 21:39 347K
20260426T18Z_MSC_RDPS_WindU_IsbL-0250_RLatLon0.09_PT066H.grib2 2026-04-26 21:39 349K
20260426T18Z_MSC_RDPS_WindU_IsbL-0275_RLatLon0.09_PT066H.grib2 2026-04-26 21:39 364K
20260426T18Z_MSC_RDPS_WindU_IsbL-0300_RLatLon0.09_PT066H.grib2 2026-04-26 21:39 359K
20260426T18Z_MSC_RDPS_WindU_IsbL-0350_RLatLon0.09_PT066H.grib2 2026-04-26 21:39 469K
20260426T18Z_MSC_RDPS_WindU_IsbL-0400_RLatLon0.09_PT066H.grib2 2026-04-26 21:39 468K
20260426T18Z_MSC_RDPS_WindU_IsbL-0450_RLatLon0.09_PT066H.grib2 2026-04-26 21:39 466K
20260426T18Z_MSC_RDPS_WindU_IsbL-0500_RLatLon0.09_PT066H.grib2 2026-04-26 21:39 466K
20260426T18Z_MSC_RDPS_WindU_IsbL-0550_RLatLon0.09_PT066H.grib2 2026-04-26 21:39 466K
20260426T18Z_MSC_RDPS_WindU_IsbL-0600_RLatLon0.09_PT066H.grib2 2026-04-26 21:39 456K
20260426T18Z_MSC_RDPS_WindU_IsbL-0650_RLatLon0.09_PT066H.grib2 2026-04-26 21:39 474K
20260426T18Z_MSC_RDPS_WindU_IsbL-0700_RLatLon0.09_PT066H.grib2 2026-04-26 21:39 496K
20260426T18Z_MSC_RDPS_WindU_IsbL-0750_RLatLon0.09_PT066H.grib2 2026-04-26 21:39 522K
20260426T18Z_MSC_RDPS_WindU_IsbL-0800_RLatLon0.09_PT066H.grib2 2026-04-26 21:39 565K
20260426T18Z_MSC_RDPS_WindU_IsbL-0850_RLatLon0.09_PT066H.grib2 2026-04-26 21:39 620K
20260426T18Z_MSC_RDPS_WindU_IsbL-0875_RLatLon0.09_PT066H.grib2 2026-04-26 21:39 640K
20260426T18Z_MSC_RDPS_WindU_IsbL-0900_RLatLon0.09_PT066H.grib2 2026-04-26 21:39 652K
20260426T18Z_MSC_RDPS_WindU_IsbL-0925_RLatLon0.09_PT066H.grib2 2026-04-26 21:39 658K
20260426T18Z_MSC_RDPS_WindU_IsbL-0950_RLatLon0.09_PT066H.grib2 2026-04-26 21:39 655K
20260426T18Z_MSC_RDPS_WindU_IsbL-0970_RLatLon0.09_PT066H.grib2 2026-04-26 21:39 654K
20260426T18Z_MSC_RDPS_WindU_IsbL-0985_RLatLon0.09_PT066H.grib2 2026-04-26 21:39 650K
20260426T18Z_MSC_RDPS_WindU_IsbL-1000_RLatLon0.09_PT066H.grib2 2026-04-26 21:39 787K
20260426T18Z_MSC_RDPS_WindU_IsbL-1015_RLatLon0.09_PT066H.grib2 2026-04-26 21:39 781K
20260426T18Z_MSC_RDPS_WindV_AGL-10m_RLatLon0.09_PT066H.grib2 2026-04-26 21:39 433K
20260426T18Z_MSC_RDPS_WindV_AGL-120m_RLatLon0.09_PT066H.grib2 2026-04-26 21:39 536K
20260426T18Z_MSC_RDPS_WindV_AGL-40m_RLatLon0.09_PT066H.grib2 2026-04-26 21:39 539K
20260426T18Z_MSC_RDPS_WindV_AGL-80m_RLatLon0.09_PT066H.grib2 2026-04-26 21:39 537K
20260426T18Z_MSC_RDPS_WindV_IsbL-0001_RLatLon0.09_PT066H.grib2 2026-04-26 21:39 293K
20260426T18Z_MSC_RDPS_WindV_IsbL-0005_RLatLon0.09_PT066H.grib2 2026-04-26 21:39 289K
20260426T18Z_MSC_RDPS_WindV_IsbL-0010_RLatLon0.09_PT066H.grib2 2026-04-26 21:39 301K
20260426T18Z_MSC_RDPS_WindV_IsbL-0020_RLatLon0.09_PT066H.grib2 2026-04-26 21:39 319K
20260426T18Z_MSC_RDPS_WindV_IsbL-0030_RLatLon0.09_PT066H.grib2 2026-04-26 21:39 356K
20260426T18Z_MSC_RDPS_WindV_IsbL-0050_RLatLon0.09_PT066H.grib2 2026-04-26 21:39 350K
20260426T18Z_MSC_RDPS_WindV_IsbL-0100_RLatLon0.09_PT066H.grib2 2026-04-26 21:39 337K
20260426T18Z_MSC_RDPS_WindV_IsbL-0150_RLatLon0.09_PT066H.grib2 2026-04-26 21:39 398K
20260426T18Z_MSC_RDPS_WindV_IsbL-0175_RLatLon0.09_PT066H.grib2 2026-04-26 21:39 328K
20260426T18Z_MSC_RDPS_WindV_IsbL-0200_RLatLon0.09_PT066H.grib2 2026-04-26 21:39 343K
20260426T18Z_MSC_RDPS_WindV_IsbL-0225_RLatLon0.09_PT066H.grib2 2026-04-26 21:39 371K
20260426T18Z_MSC_RDPS_WindV_IsbL-0250_RLatLon0.09_PT066H.grib2 2026-04-26 21:39 372K
20260426T18Z_MSC_RDPS_WindV_IsbL-0275_RLatLon0.09_PT066H.grib2 2026-04-26 21:39 386K
20260426T18Z_MSC_RDPS_WindV_IsbL-0300_RLatLon0.09_PT066H.grib2 2026-04-26 21:39 382K
20260426T18Z_MSC_RDPS_WindV_IsbL-0350_RLatLon0.09_PT066H.grib2 2026-04-26 21:39 365K
20260426T18Z_MSC_RDPS_WindV_IsbL-0400_RLatLon0.09_PT066H.grib2 2026-04-26 21:39 366K
20260426T18Z_MSC_RDPS_WindV_IsbL-0450_RLatLon0.09_PT066H.grib2 2026-04-26 21:39 468K
20260426T18Z_MSC_RDPS_WindV_IsbL-0500_RLatLon0.09_PT066H.grib2 2026-04-26 21:39 466K
20260426T18Z_MSC_RDPS_WindV_IsbL-0550_RLatLon0.09_PT066H.grib2 2026-04-26 21:39 466K
20260426T18Z_MSC_RDPS_WindV_IsbL-0600_RLatLon0.09_PT066H.grib2 2026-04-26 21:39 472K
20260426T18Z_MSC_RDPS_WindV_IsbL-0650_RLatLon0.09_PT066H.grib2 2026-04-26 21:39 489K
20260426T18Z_MSC_RDPS_WindV_IsbL-0700_RLatLon0.09_PT066H.grib2 2026-04-26 21:39 507K
20260426T18Z_MSC_RDPS_WindV_IsbL-0750_RLatLon0.09_PT066H.grib2 2026-04-26 21:39 531K
20260426T18Z_MSC_RDPS_WindV_IsbL-0800_RLatLon0.09_PT066H.grib2 2026-04-26 21:39 572K
20260426T18Z_MSC_RDPS_WindV_IsbL-0850_RLatLon0.09_PT066H.grib2 2026-04-26 21:39 616K
20260426T18Z_MSC_RDPS_WindV_IsbL-0875_RLatLon0.09_PT066H.grib2 2026-04-26 21:39 637K
20260426T18Z_MSC_RDPS_WindV_IsbL-0900_RLatLon0.09_PT066H.grib2 2026-04-26 21:39 649K
20260426T18Z_MSC_RDPS_WindV_IsbL-0925_RLatLon0.09_PT066H.grib2 2026-04-26 21:39 657K
20260426T18Z_MSC_RDPS_WindV_IsbL-0950_RLatLon0.09_PT066H.grib2 2026-04-26 21:39 796K
20260426T18Z_MSC_RDPS_WindV_IsbL-0970_RLatLon0.09_PT066H.grib2 2026-04-26 21:39 797K
20260426T18Z_MSC_RDPS_WindV_IsbL-0985_RLatLon0.09_PT066H.grib2 2026-04-26 21:39 792K
20260426T18Z_MSC_RDPS_WindV_IsbL-1000_RLatLon0.09_PT066H.grib2 2026-04-26 21:39 832K
20260426T18Z_MSC_RDPS_WindV_IsbL-1015_RLatLon0.09_PT066H.grib2 2026-04-26 21:39 826K